Location: Unspecified
(0.0000°N, 0.0000°E)
Time: 00:37:25
(UTC+00:00)

Fuji - Pass Details

Date: 03 December 2022
Orbit: 1479 x 1496 km, 50.0° (Epoch: 26 January)

Event Time Altitude Azimuth Distance (km) Brightness Sun altitude
Rises 20:16:08 0° 275° (W) 4,596 ? -33.5°
Reaches altitude 10° 20:22:42 10° 241° (WSW) 3,624 ? -34.9°
Maximum altitude 20:24:43 11° 228° (SW) 3,560 ? -35.4°
Drops below altitude 10° 20:26:45 10° 215° (SW) 3,628 ? -35.8°
Sets 20:33:25 0° 180° (S) 4,616 ? -37.3°
